Date,Time,Wetness (Wet Dry or Ice),Wind Speed (m/s),Temperature (C),Humidity (%),Pressure (mb),Radiation (W/m^2)
2020-12-20,02:25:00,DRY,5.95,5.35,63.5,777.50,1.2
2020-12-20,02:30:00,DRY,6.13,5.30,61.0,777.67,1.3
2020-12-20,02:35:00,DRY,6.25,5.30,57.5,777.50,1.3
2020-12-20,02:40:00,DRY,5.50,5.37,57.7,777.67,1.7
2020-12-20,02:45:00,DRY,6.55,5.40,56.5,778.00,1.6
2020-12-20,02:50:00,DRY,6.57,5.47,59.3,777.33,1.9
2020-12-20,02:55:00,DRY,6.15,5.30,57.5,778.00,1.1
2020-12-20,03:00:00,DRY,6.63,5.27,61.0,777.00,1.3
2020-12-20,03:05:00,DRY,7.05,5.25,65.5,777.00,1.6
2020-12-20,03:10:00,DRY,6.23,5.20,63.3,777.33,1.2
2020-12-20,03:15:00,DRY,7.05,5.30,58.5,777.00,1.6
2020-12-20,03:20:00,DRY,6.93,5.30,55.7,777.00,1.3
2020-12-20,03:25:00,DRY,6.40,5.55,59.5,777.00,2.4
2020-12-20,03:30:00,DRY,6.30,5.77,62.0,777.00,1.2
2020-12-20,03:35:00,DRY,5.65,5.75,64.5,777.00,1.2
2020-12-20,03:40:00,DRY,6.30,5.80,67.3,777.00,1.4
2020-12-20,03:45:00,DRY,6.50,5.75,68.5,777.00,1.4
2020-12-20,03:50:00,DRY,5.20,5.70,68.3,777.00,1.1
2020-12-20,03:55:00,DRY,6.40,5.85,67.0,777.00,1.4
2020-12-20,04:00:00,DRY,7.07,6.00,68.7,777.00,1.5
2020-12-20,04:05:00,DRY,4.00,6.10,67.5,777.00,1.3
2020-12-20,04:10:00,DRY,6.27,6.07,66.7,777.00,1.2
2020-12-20,04:15:00,DRY,6.25,6.10,67.5,777.00,1.4
2020-12-20,04:20:00,DRY,6.10,6.03,68.7,777.00,1.8
2020-12-20,04:25:00,DRY,5.80,5.85,69.5,777.00,1.2
2020-12-20,04:30:00,DRY,7.63,6.10,70.0,777.00,1.1
2020-12-20,04:35:00,DRY,5.65,6.05,69.0,777.00,1.4
2020-12-20,04:40:00,DRY,7.03,6.03,68.7,777.00,1.2
2020-12-20,04:45:00,DRY,5.80,6.05,69.5,777.00,1.6
2020-12-20,04:50:00,DRY,5.00,6.00,69.0,777.00,0.9
2020-12-20,04:55:00,DRY,5.90,5.90,69.5,777.00,1.4
2020-12-20,05:00:00,DRY,6.03,6.07,68.7,777.00,1.4
2020-12-20,05:05:00,DRY,4.90,6.05,68.5,777.00,1.4
2020-12-20,05:10:00,DRY,4.97,5.97,67.7,777.00,1.2
2020-12-20,05:15:00,DRY,3.60,6.00,68.0,777.00,0.5
2020-12-20,05:20:00,DRY,5.23,5.93,67.3,777.00,1.3
2020-12-20,05:25:00,DRY,4.45,5.95,67.0,777.00,1.5
2020-12-20,05:30:00,DRY,4.40,5.77,67.0,777.00,2.0
2020-12-20,05:35:00,DRY,3.55,5.80,67.5,777.00,0.8
2020-12-20,05:40:00,DRY,4.97,5.83,68.3,777.00,1.2
2020-12-20,05:45:00,DRY,3.00,5.95,67.5,777.00,1.1
2020-12-20,05:50:00,DRY,4.57,5.90,65.7,777.00,1.3
2020-12-20,05:55:00,DRY,4.15,5.90,66.5,777.00,1.8
2020-12-20,06:00:00,DRY,3.50,5.87,64.7,777.00,1.3
2020-12-20,06:05:00,DRY,4.70,5.80,64.0,777.00,1.5
2020-12-20,06:10:00,DRY,4.90,5.87,64.3,777.00,1.4
2020-12-20,06:15:00,DRY,5.10,5.85,62.0,777.00,1.1
2020-12-20,06:20:00,DRY,4.10,5.17,65.0,777.00,1.7
2020-12-20,06:25:00,DRY,3.50,4.85,67.5,777.00,2.8
2020-12-20,06:30:00,DRY,4.03,5.00,63.0,777.00,1.7
2020-12-20,06:35:00,DRY,4.10,5.45,60.0,777.00,1.2
2020-12-20,06:40:00,DRY,4.30,5.67,59.3,777.00,1.4
2020-12-20,06:45:00,DRY,3.65,5.45,56.0,777.00,1.6
2020-12-20,06:50:00,DRY,2.87,5.17,54.0,777.00,1.6
2020-12-20,06:55:00,DRY,3.00,5.35,56.5,777.00,1.6
2020-12-20,07:00:00,DRY,3.20,6.00,64.0,777.00,1.2
2020-12-20,07:05:00,DRY,3.55,6.45,66.5,777.00,1.4
2020-12-20,07:10:00,DRY,3.37,6.50,66.0,777.00,1.0
2020-12-20,07:15:00,DRY,4.05,6.35,65.5,777.00,1.2
2020-12-20,07:20:00,DRY,3.47,6.20,67.3,777.00,1.4
2020-12-20,07:25:00,DRY,4.20,6.70,66.0,777.00,1.6
2020-12-20,07:30:00,DRY,4.07,7.00,64.3,777.00,1.3
2020-12-20,07:35:00,DRY,4.00,7.10,64.0,777.00,1.5
2020-12-20,07:40:00,DRY,3.67,7.00,63.7,777.00,1.6
2020-12-20,07:45:00,DRY,3.75,6.90,64.0,777.00,2.0
2020-12-20,07:50:00,DRY,3.80,6.87,63.3,777.33,3.7
2020-12-20,07:55:00,DRY,3.90,7.20,61.0,778.00,5.2
2020-12-20,08:00:00,DRY,3.80,7.33,60.3,778.00,8.0
2020-12-20,08:05:00,DRY,3.70,7.30,60.0,778.00,9.6
2020-12-20,08:10:00,DRY,3.40,7.23,60.3,778.00,12.2
2020-12-20,08:15:00,DRY,4.00,7.35,60.0,778.00,15.5
2020-12-20,08:20:00,DRY,3.77,7.17,61.7,778.00,16.3
2020-12-20,08:25:00,DRY,3.65,7.25,61.0,778.00,18.2
2020-12-20,08:30:00,DRY,3.93,7.30,60.3,778.00,21.0
2020-12-20,08:35:00,DRY,3.60,7.00,62.0,778.00,22.2
2020-12-20,08:40:00,DRY,3.57,6.87,62.7,778.00,39.3
2020-12-20,08:45:00,DRY,3.60,7.00,60.5,778.00,164.8
2020-12-20,08:50:00,DRY,3.70,7.03,59.3,778.00,183.1
2020-12-20,08:55:00,DRY,3.60,7.15,57.5,778.00,202.6
2020-12-20,09:00:00,DRY,3.37,7.50,56.3,778.00,223.3
2020-12-20,09:05:00,DRY,3.25,7.55,54.0,778.00,243.2
2020-12-20,09:10:00,DRY,4.10,7.73,53.0,778.00,263.8
2020-12-20,09:15:00,DRY,3.75,7.75,52.0,778.00,284.4
2020-12-20,09:20:00,DRY,3.63,6.97,49.7,778.00,305.8
2020-12-20,09:25:00,DRY,4.25,6.95,45.5,778.00,328.1
2020-12-20,09:30:00,DRY,3.23,6.77,43.7,778.00,351.8
2020-12-20,09:35:00,DRY,3.30,6.75,42.0,778.00,377.6
2020-12-20,09:40:00,DRY,4.00,6.93,38.7,778.00,400.3
2020-12-20,09:45:00,DRY,4.25,7.10,36.0,778.00,421.0
2020-12-20,09:50:00,DRY,2.87,7.17,34.0,778.00,442.5
2020-12-20,09:55:00,DRY,4.65,7.10,31.5,778.00,463.2
2020-12-20,10:00:00,DRY,4.83,7.13,30.7,778.00,461.2
2020-12-20,10:05:00,DRY,4.45,7.20,27.5,778.00,430.5
2020-12-20,10:10:00,DRY,4.73,7.23,29.0,778.00,453.8
2020-12-20,10:15:00,DRY,4.75,7.40,30.0,778.00,398.5
2020-12-20,10:20:00,DRY,4.30,7.27,31.0,778.67,390.8
2020-12-20,10:25:00,DRY,5.25,7.10,33.5,779.00,341.1
2020-12-20,10:30:00,DRY,4.57,7.20,34.0,778.33,526.6
2020-12-20,10:35:00,DRY,4.25,7.25,34.0,779.00,558.8
2020-12-20,10:40:00,DRY,5.23,7.13,35.7,778.67,571.7
2020-12-20,10:45:00,DRY,6.00,7.10,35.0,779.00,581.4
2020-12-20,10:50:00,DRY,4.63,7.23,34.3,779.00,593.1
2020-12-20,10:55:00,DRY,4.20,7.35,34.0,779.00,604.8
2020-12-20,11:00:00,DRY,3.97,7.33,34.0,778.67,615.7
2020-12-20,11:05:00,DRY,3.20,7.35,32.0,779.00,627.8
2020-12-20,11:10:00,DRY,4.20,7.43,33.0,779.00,637.9
2020-12-20,11:15:00,DRY,4.65,7.55,32.5,779.00,648.8
2020-12-20,11:20:00,DRY,4.20,7.53,33.3,778.67,658.8
2020-12-20,11:25:00,DRY,4.75,7.50,33.5,779.00,669.0
2020-12-20,11:30:00,DRY,4.40,7.63,30.7,779.00,678.9
2020-12-20,11:35:00,DRY,5.05,7.65,32.5,779.00,687.8
2020-12-20,11:40:00,DRY,5.23,7.73,31.3,778.67,697.0
2020-12-20,11:45:00,DRY,4.15,7.70,29.5,779.00,705.0
2020-12-20,11:50:00,DRY,5.67,7.80,32.7,778.00,713.2
2020-12-20,11:55:00,DRY,5.90,7.85,31.0,778.00,720.2
2020-12-20,12:00:00,DRY,5.70,7.80,32.0,778.00,728.2
2020-12-20,12:05:00,DRY,5.15,7.95,34.0,778.00,733.8
2020-12-20,12:10:00,DRY,4.60,8.10,37.0,778.00,739.6
2020-12-20,12:15:00,DRY,4.90,8.10,43.5,778.00,746.3
2020-12-20,12:20:00,DRY,5.67,8.17,42.3,778.00,751.7
2020-12-20,12:25:00,DRY,5.70,8.20,38.5,778.00,756.9
2020-12-20,12:30:00,DRY,5.13,8.20,37.7,778.00,761.3
2020-12-20,12:35:00,DRY,3.85,8.25,38.5,778.00,764.8
2020-12-20,12:40:00,DRY,4.90,8.27,41.3,778.00,768.4
2020-12-20,12:45:00,DRY,3.90,8.40,38.0,778.00,771.0
2020-12-20,12:50:00,DRY,4.53,8.67,39.3,778.00,772.4
2020-12-20,12:55:00,DRY,2.85,8.70,40.0,778.00,763.8
2020-12-20,13:00:00,DRY,4.10,8.73,38.7,778.00,777.7
2020-12-20,13:05:00,DRY,4.60,8.45,40.5,778.00,783.5
2020-12-20,13:10:00,DRY,4.37,8.30,41.3,778.00,789.8
2020-12-20,13:15:00,DRY,3.90,8.20,41.5,778.00,797.2
2020-12-20,13:20:00,DRY,3.23,8.23,40.3,778.00,802.4
2020-12-20,13:25:00,DRY,4.10,8.30,39.0,778.00,800.2
2020-12-20,13:30:00,DRY,3.40,8.30,40.0,778.00,793.8
2020-12-20,13:35:00,,,,,,
2020-12-20,13:40:00,DRY,4.20,8.57,40.7,777.33,768.8
2020-12-20,13:45:00,DRY,3.35,8.65,41.5,778.00,764.5
2020-12-20,13:50:00,DRY,5.10,8.53,42.7,777.67,757.8
2020-12-20,13:55:00,DRY,4.35,8.35,42.5,777.00,751.8
2020-12-20,14:00:00,DRY,3.80,8.20,43.3,777.00,746.3
2020-12-20,14:05:00,DRY,3.00,8.20,45.0,777.00,740.7
2020-12-20,14:10:00,DRY,3.50,8.20,45.7,777.00,734.8
2020-12-20,14:15:00,DRY,2.75,8.10,45.0,777.00,728.3
2020-12-20,14:20:00,DRY,4.07,8.20,45.3,777.00,721.8
2020-12-20,14:25:00,DRY,2.65,8.25,45.5,777.00,713.8
2020-12-20,14:30:00,DRY,2.90,8.33,46.0,777.00,706.9
2020-12-20,14:35:00,DRY,2.90,8.40,46.5,777.00,699.4
2020-12-20,14:40:00,DRY,3.10,8.27,45.7,777.00,688.5
2020-12-20,14:45:00,DRY,4.05,8.20,47.0,777.00,679.1
2020-12-20,14:50:00,DRY,3.83,8.13,46.3,777.00,669.5
2020-12-20,14:55:00,DRY,4.15,8.05,45.5,777.00,658.5
2020-12-20,15:00:00,DRY,3.67,7.87,48.0,777.00,647.8
2020-12-20,15:05:00,DRY,3.55,7.95,46.0,777.00,635.9
2020-12-20,15:10:00,DRY,3.93,7.90,46.0,777.00,624.9
2020-12-20,15:15:00,DRY,5.15,7.85,42.5,777.00,612.7
2020-12-20,15:20:00,DRY,3.73,7.80,42.0,777.00,600.4
2020-12-20,15:25:00,DRY,3.95,7.90,40.0,777.00,587.3
2020-12-20,15:30:00,DRY,3.60,7.80,40.3,777.00,572.8
2020-12-20,15:35:00,DRY,3.20,7.75,37.0,777.00,559.8
2020-12-20,15:40:00,DRY,4.00,7.80,39.7,777.00,544.4
2020-12-20,15:45:00,DRY,3.25,7.70,40.0,777.00,529.9
2020-12-20,15:50:00,DRY,4.60,7.60,39.7,777.00,515.0
2020-12-20,15:55:00,DRY,3.65,7.60,39.5,777.00,499.6
2020-12-20,16:00:00,DRY,3.93,7.60,39.3,777.33,483.6
2020-12-20,16:05:00,DRY,3.20,7.50,39.5,777.00,467.8
2020-12-20,16:10:00,DRY,3.27,7.50,38.7,777.00,451.4
2020-12-20,16:15:00,DRY,3.65,7.50,40.5,777.50,434.1
2020-12-20,16:20:00,DRY,4.27,7.40,40.3,777.67,416.3
2020-12-20,16:25:00,DRY,3.95,7.30,40.5,777.00,399.5
2020-12-20,16:30:00,DRY,2.90,7.17,40.3,777.33,381.6
2020-12-20,16:35:00,DRY,2.65,6.95,41.0,777.50,363.8
2020-12-20,16:40:00,DRY,4.00,6.90,39.7,777.33,344.6
2020-12-20,16:45:00,DRY,4.65,6.90,40.5,777.50,326.7
2020-12-20,16:50:00,DRY,2.80,6.77,40.7,777.33,307.2
2020-12-20,16:55:00,DRY,3.65,6.70,40.0,778.00,289.8
2020-12-20,17:00:00,DRY,3.30,6.67,40.7,778.00,269.6
2020-12-20,17:05:00,DRY,3.90,6.60,41.5,777.50,250.4
2020-12-20,17:10:00,DRY,3.97,6.60,40.7,777.67,231.8
2020-12-20,17:15:00,DRY,3.45,6.70,39.0,778.00,213.6
2020-12-20,17:20:00,DRY,2.93,6.80,41.0,778.00,195.3
2020-12-20,17:25:00,DRY,3.40,6.70,40.0,778.00,178.7
2020-12-20,17:30:00,DRY,3.63,6.60,39.3,778.00,160.3
2020-12-20,17:35:00,DRY,3.45,6.45,40.0,778.00,139.2
2020-12-20,17:40:00,DRY,2.87,6.37,40.3,778.00,114.0
2020-12-20,17:45:00,DRY,3.00,6.30,40.0,778.00,89.2
2020-12-20,17:50:00,DRY,3.13,6.30,40.3,778.00,68.2
2020-12-20,17:55:00,DRY,4.25,6.30,40.5,778.00,50.0
2020-12-20,18:00:00,DRY,3.87,6.23,41.3,778.00,35.0
2020-12-20,18:05:00,DRY,3.60,6.00,42.0,778.00,23.7
2020-12-20,18:10:00,DRY,4.03,6.00,42.0,778.00,16.4
2020-12-20,18:15:00,DRY,3.80,6.10,42.0,778.00,12.7
2020-12-20,18:20:00,DRY,3.93,6.10,42.7,778.00,8.8
2020-12-20,18:25:00,DRY,4.15,5.95,43.0,778.00,5.2
2020-12-20,18:30:00,DRY,4.67,5.90,43.3,778.00,3.0
2020-12-20,18:35:00,DRY,3.65,5.90,44.0,778.00,2.2
2020-12-20,18:40:00,DRY,3.57,5.83,44.0,778.00,1.1
2020-12-20,18:45:00,DRY,4.30,5.90,43.5,778.00,1.3
2020-12-20,18:50:00,DRY,3.93,5.87,44.3,778.00,1.1
2020-12-20,18:55:00,DRY,4.95,5.90,45.5,778.00,1.1
2020-12-20,19:00:00,DRY,4.83,6.23,45.0,778.00,1.5
2020-12-20,19:05:00,DRY,5.00,6.35,44.5,778.00,1.6
2020-12-20,19:10:00,DRY,4.37,6.13,46.0,778.00,1.4
2020-12-20,19:15:00,DRY,5.05,6.25,45.5,778.00,1.2
2020-12-20,19:20:00,DRY,4.77,6.37,45.0,778.00,1.1
2020-12-20,19:25:00,DRY,4.40,6.35,45.0,778.00,1.3
2020-12-20,19:30:00,DRY,3.77,6.57,43.7,778.00,1.3
2020-12-20,19:35:00,DRY,4.90,6.65,42.5,778.00,1.1
2020-12-20,19:40:00,DRY,3.87,6.77,42.3,778.00,1.0
2020-12-20,19:45:00,DRY,3.70,6.90,42.0,778.00,1.0
2020-12-20,19:50:00,DRY,4.50,6.87,42.0,778.00,1.5
2020-12-20,19:55:00,DRY,3.65,6.80,42.0,778.00,1.4
2020-12-20,20:00:00,DRY,4.60,6.77,42.3,778.00,0.6
2020-12-20,20:05:00,DRY,4.70,6.70,43.0,778.00,0.8
2020-12-20,20:10:00,DRY,3.90,6.73,42.7,778.00,1.0
2020-12-20,20:15:00,DRY,3.85,6.65,43.0,778.50,1.0
2020-12-20,20:20:00,DRY,3.40,6.70,43.3,778.67,0.8
2020-12-20,20:25:00,DRY,4.15,6.80,42.5,778.50,1.1
2020-12-20,20:30:00,DRY,3.30,6.80,42.7,779.00,1.1
2020-12-20,20:35:00,DRY,2.80,6.70,43.5,779.00,0.8
2020-12-20,20:40:00,DRY,3.27,6.70,44.0,779.00,0.9
2020-12-20,20:45:00,DRY,3.40,6.70,43.5,779.00,1.4
2020-12-20,20:50:00,DRY,3.23,6.87,45.3,779.00,1.4
2020-12-20,20:55:00,DRY,3.35,7.20,45.0,779.00,0.7
2020-12-20,21:00:00,DRY,4.43,7.60,42.0,779.00,1.1
2020-12-20,21:05:00,DRY,3.90,8.00,40.0,779.00,1.4
2020-12-20,21:10:00,DRY,3.90,7.93,40.3,779.00,1.1
2020-12-20,21:15:00,DRY,3.70,7.45,42.5,779.00,1.4
2020-12-20,21:20:00,DRY,2.87,7.37,41.7,779.00,0.8
2020-12-20,21:25:00,DRY,4.20,7.30,42.0,779.00,1.2
2020-12-20,21:30:00,DRY,3.50,7.30,43.3,779.00,1.2
2020-12-20,21:35:00,DRY,2.60,7.05,44.5,779.00,0.8
2020-12-20,21:40:00,DRY,3.10,7.07,43.3,779.00,1.4
2020-12-20,21:45:00,DRY,3.00,7.05,45.0,779.00,1.0
2020-12-20,21:50:00,DRY,2.90,7.27,43.3,779.00,1.5
2020-12-20,21:55:00,DRY,3.15,7.10,41.5,779.00,0.9
2020-12-20,22:00:00,DRY,2.83,7.07,42.0,779.00,1.4
2020-12-20,22:05:00,DRY,2.85,7.05,41.5,779.00,1.4
2020-12-20,22:10:00,DRY,2.73,7.20,40.0,779.00,0.9
2020-12-20,22:15:00,DRY,3.05,7.40,39.0,779.00,1.4
2020-12-20,22:20:00,DRY,3.63,7.87,36.7,779.00,1.0
2020-12-20,22:25:00,DRY,3.90,8.25,36.0,779.00,1.1
2020-12-20,22:30:00,DRY,4.73,8.50,35.3,779.00,1.7
2020-12-20,22:35:00,DRY,3.80,8.45,35.0,779.00,1.1
2020-12-20,22:40:00,DRY,3.97,8.60,35.0,779.00,1.1
2020-12-20,22:45:00,DRY,4.80,8.55,35.0,779.00,1.7
2020-12-20,22:50:00,DRY,3.90,8.63,34.3,779.00,1.1
2020-12-20,22:55:00,DRY,4.25,8.55,34.5,779.00,1.2
2020-12-20,23:00:00,DRY,4.37,8.60,34.0,779.00,1.1
2020-12-20,23:05:00,DRY,4.40,8.50,34.0,779.00,1.1
2020-12-20,23:10:00,DRY,3.90,8.63,33.7,779.00,1.0
2020-12-20,23:15:00,DRY,3.55,8.85,32.0,779.00,1.1
2020-12-20,23:20:00,DRY,3.63,8.93,31.7,779.00,1.4
2020-12-20,23:25:00,DRY,3.75,8.80,32.5,779.00,1.1
2020-12-20,23:30:00,DRY,4.10,8.80,32.3,779.00,1.0
2020-12-20,23:35:00,DRY,3.60,8.95,31.5,779.00,1.0
2020-12-20,23:40:00,DRY,3.47,9.03,31.0,779.00,0.7
2020-12-20,23:45:00,DRY,3.15,9.20,28.5,779.00,1.0
2020-12-20,23:50:00,DRY,2.80,9.13,28.3,779.00,1.5
2020-12-20,23:55:00,DRY,2.50,9.25,26.5,779.00,0.6
2020-12-21,00:00:00,DRY,2.93,9.33,23.7,779.00,0.8
2020-12-21,00:05:00,DRY,3.45,9.10,26.0,779.00,0.9
2020-12-21,00:10:00,DRY,2.73,9.37,22.7,779.00,1.2
2020-12-21,00:15:00,DRY,2.75,9.65,21.5,779.00,0.6
2020-12-21,00:20:00,DRY,2.93,9.30,23.7,779.00,1.0
2020-12-21,00:25:00,DRY,2.40,9.40,23.5,779.00,1.2
2020-12-21,00:30:00,DRY,2.73,9.33,25.3,779.00,1.2
2020-12-21,00:35:00,DRY,2.50,9.35,24.0,779.00,2.0
2020-12-21,00:40:00,DRY,2.13,9.37,24.3,779.00,1.4
2020-12-21,00:45:00,DRY,3.00,9.35,24.0,779.00,1.2
2020-12-21,00:50:00,DRY,1.97,9.53,23.0,779.00,1.4
2020-12-21,00:55:00,DRY,2.05,9.55,22.5,779.00,2.1
2020-12-21,01:00:00,DRY,2.80,9.70,21.0,779.00,1.0
2020-12-21,01:05:00,DRY,2.35,9.70,21.0,779.00,1.0
2020-12-21,01:10:00,DRY,2.73,9.57,21.7,778.67,1.6
2020-12-21,01:15:00,DRY,1.90,9.60,20.5,778.50,1.9
2020-12-21,01:20:00,DRY,1.83,9.57,21.0,778.33,1.0
2020-12-21,01:25:00,DRY,3.25,9.50,22.0,779.00,1.1
2020-12-21,01:30:00,DRY,2.40,9.40,24.0,778.00,1.0
2020-12-21,01:35:00,DRY,2.55,9.25,24.5,778.00,0.6
2020-12-21,01:40:00,DRY,2.23,9.27,23.0,778.00,1.9
2020-12-21,01:45:00,DRY,1.95,9.25,22.5,778.00,1.0
2020-12-21,01:50:00,DRY,1.80,9.37,21.0,778.00,1.1
2020-12-21,01:55:00,DRY,4.25,9.15,24.5,778.00,1.1
2020-12-21,02:00:00,DRY,3.00,8.83,27.7,778.00,0.6
2020-12-21,02:05:00,DRY,4.15,8.85,25.5,778.00,1.2
2020-12-21,02:10:00,DRY,3.13,8.90,25.3,778.00,0.9
2020-12-21,02:15:00,DRY,1.20,8.95,24.0,778.00,0.8
2020-12-21,02:20:00,DRY,1.77,9.33,21.7,778.00,0.8
2020-12-21,02:25:00,DRY,3.45,9.35,22.0,778.00,1.5
2020-12-21,02:30:00,DRY,4.07,9.40,22.0,778.00,1.4
2020-12-21,02:35:00,DRY,2.75,9.55,21.0,778.00,1.2
2020-12-21,02:40:00,DRY,2.63,9.50,21.0,778.00,1.4
2020-12-21,02:45:00,DRY,3.40,9.40,21.5,778.00,1.7
2020-12-21,02:50:00,DRY,1.93,9.23,22.0,778.00,1.6
2020-12-21,02:55:00,DRY,0.75,9.05,22.0,778.00,1.5
2020-12-21,03:00:00,DRY,1.77,9.40,20.7,778.00,1.3
2020-12-21,03:05:00,DRY,3.05,9.50,21.0,778.00,1.2
2020-12-21,03:10:00,DRY,2.43,9.47,21.3,778.00,1.0
2020-12-21,03:15:00,DRY,2.00,9.40,21.0,778.00,0.7
2020-12-21,03:20:00,DRY,2.03,9.53,20.3,778.00,0.9
2020-12-21,03:25:00,DRY,2.35,9.55,20.5,778.00,0.6
2020-12-21,03:30:00,DRY,1.93,9.57,20.0,778.00,0.9
2020-12-21,03:35:00,DRY,2.60,9.45,20.5,778.00,0.9
2020-12-21,03:40:00,DRY,2.00,9.33,21.0,778.00,1.1
2020-12-21,03:45:00,DRY,2.25,9.00,22.0,778.00,0.7
2020-12-21,03:50:00,DRY,1.10,8.93,22.0,778.00,1.3
2020-12-21,03:55:00,DRY,1.30,8.75,22.5,778.00,0.6
2020-12-21,04:00:00,DRY,1.60,8.60,23.3,778.00,1.4
2020-12-21,04:05:00,DRY,1.30,8.80,23.0,778.00,0.8
2020-12-21,04:10:00,DRY,2.07,8.73,22.7,778.00,1.4
2020-12-21,04:15:00,DRY,1.60,8.80,22.0,778.00,2.1
2020-12-21,04:20:00,DRY,2.50,9.10,22.7,778.00,1.0
2020-12-21,04:25:00,DRY,2.50,8.90,23.0,778.00,1.3
2020-12-21,04:30:00,DRY,1.97,8.47,23.7,778.00,2.0
2020-12-21,04:35:00,DRY,2.05,8.60,23.5,778.00,1.9
2020-12-21,04:40:00,DRY,4.23,8.50,24.0,778.00,1.0
2020-12-21,04:45:00,DRY,3.70,8.60,23.0,778.00,0.7
2020-12-21,04:50:00,DRY,4.23,8.73,23.3,778.00,1.3
2020-12-21,04:55:00,DRY,3.20,9.15,23.0,778.00,0.7
2020-12-21,05:00:00,DRY,2.33,9.10,22.7,778.00,1.1
2020-12-21,05:05:00,DRY,1.40,9.35,22.0,778.00,0.0
2020-12-21,05:10:00,DRY,1.30,9.40,22.3,778.00,1.0
2020-12-21,05:15:00,DRY,0.90,8.90,23.0,778.00,1.5
2020-12-21,05:20:00,DRY,1.53,8.97,22.7,778.00,1.6
2020-12-21,05:25:00,DRY,3.75,9.45,22.0,778.00,0.9
2020-12-21,05:30:00,DRY,4.17,9.70,22.0,778.00,0.9
2020-12-21,05:35:00,DRY,3.90,9.50,22.0,778.00,1.2
2020-12-21,05:40:00,DRY,3.27,9.43,22.3,778.00,1.2
2020-12-21,05:45:00,DRY,3.25,9.40,22.5,778.00,0.9
2020-12-21,05:50:00,DRY,3.67,9.23,23.0,778.00,1.1
2020-12-21,05:55:00,DRY,3.85,9.55,22.0,778.00,1.4
2020-12-21,06:00:00,DRY,3.83,9.83,21.0,778.00,1.2
2020-12-21,06:05:00,DRY,3.55,9.90,22.0,778.00,1.8
2020-12-21,06:10:00,DRY,4.67,9.57,22.0,778.00,1.4
2020-12-21,06:15:00,DRY,2.90,9.45,22.5,778.00,1.8
2020-12-21,06:20:00,DRY,3.77,9.17,22.7,778.00,1.1
2020-12-21,06:25:00,DRY,3.80,9.35,22.0,778.00,0.9
2020-12-21,06:30:00,DRY,3.20,9.53,21.3,778.00,0.6
2020-12-21,06:35:00,DRY,2.50,9.40,22.5,778.00,0.8
2020-12-21,06:40:00,DRY,2.67,9.10,23.0,778.00,0.9
2020-12-21,06:45:00,DRY,3.15,8.95,24.0,778.00,0.8
2020-12-21,06:50:00,DRY,2.50,8.93,23.7,778.00,1.0
2020-12-21,06:55:00,DRY,2.05,8.65,24.5,778.00,0.5
2020-12-21,07:00:00,DRY,3.83,8.73,24.0,778.00,1.0
2020-12-21,07:05:00,DRY,4.15,8.65,25.0,778.00,0.8
2020-12-21,07:10:00,DRY,2.53,8.50,25.0,778.00,1.1
2020-12-21,07:15:00,DRY,2.45,8.40,25.5,778.00,1.3
2020-12-21,07:20:00,DRY,2.67,8.47,25.3,778.00,1.2
2020-12-21,07:25:00,DRY,4.40,8.40,25.5,778.00,1.4
2020-12-21,07:30:00,DRY,3.33,8.47,24.7,778.00,1.1
2020-12-21,07:35:00,DRY,3.00,8.50,25.5,778.00,1.1
2020-12-21,07:40:00,DRY,2.57,8.43,24.3,778.00,1.1
2020-12-21,07:45:00,DRY,3.25,8.45,24.5,778.00,1.9
2020-12-21,07:50:00,DRY,2.77,8.47,23.7,778.00,3.0
2020-12-21,07:55:00,DRY,2.55,8.70,23.5,778.00,5.3
2020-12-21,08:00:00,DRY,3.73,8.77,22.7,778.00,6.9
2020-12-21,08:05:00,DRY,3.35,8.65,23.0,778.00,9.4
2020-12-21,08:10:00,DRY,3.60,8.53,24.0,778.00,11.2
2020-12-21,08:15:00,DRY,3.70,8.75,22.5,778.00,14.1
2020-12-21,08:20:00,DRY,1.90,8.97,22.3,778.00,14.8
2020-12-21,08:25:00,DRY,1.30,8.70,23.5,778.00,17.6
2020-12-21,08:30:00,DRY,0.83,8.30,24.3,778.00,19.4
2020-12-21,08:35:00,DRY,1.45,8.55,23.0,778.00,20.8
2020-12-21,08:40:00,DRY,1.40,8.80,24.0,778.00,29.9
2020-12-21,08:45:00,DRY,1.15,9.25,23.5,778.00,160.0
2020-12-21,08:50:00,DRY,1.70,9.33,24.3,778.00,184.0
2020-12-21,08:55:00,DRY,2.80,9.25,24.5,778.50,203.7
2020-12-21,09:00:00,DRY,3.10,9.03,25.3,778.33,222.4
2020-12-21,09:05:00,DRY,3.00,9.10,25.5,778.50,242.4
2020-12-21,09:10:00,DRY,2.57,9.17,25.7,779.00,260.7
2020-12-21,09:15:00,DRY,2.25,9.25,25.0,779.00,281.8
2020-12-21,09:20:00,DRY,1.80,9.57,26.0,779.00,300.4
2020-12-21,09:25:00,DRY,0.70,9.95,24.0,779.00,319.7
2020-12-21,09:30:00,DRY,1.77,10.20,23.3,779.00,338.9
2020-12-21,09:35:00,DRY,1.90,10.05,23.5,779.00,356.6
2020-12-21,09:40:00,DRY,1.20,10.07,23.7,779.00,374.9
2020-12-21,09:45:00,DRY,1.90,9.90,24.0,779.00,393.7
2020-12-21,09:50:00,DRY,0.90,9.63,25.3,779.00,412.4
2020-12-21,09:55:00,DRY,1.20,10.20,24.0,779.00,428.6
2020-12-21,10:00:00,DRY,0.93,10.47,23.0,779.00,446.7
2020-12-21,10:05:00,DRY,1.25,10.35,26.5,779.00,462.8
2020-12-21,10:10:00,DRY,1.57,10.40,26.7,779.00,480.3
2020-12-21,10:15:00,DRY,1.55,10.10,27.0,779.00,496.4
2020-12-21,10:20:00,DRY,0.73,10.53,27.0,779.00,512.1
2020-12-21,10:25:00,DRY,1.90,10.35,26.5,779.00,528.0
2020-12-21,10:30:00,DRY,0.60,10.60,26.7,779.00,542.8
2020-12-21,10:35:00,DRY,1.00,10.90,28.0,779.00,557.0
2020-12-21,10:40:00,DRY,1.23,10.50,29.0,779.00,571.8
2020-12-21,10:45:00,DRY,1.95,10.60,30.0,779.00,584.0
2020-12-21,10:50:00,DRY,0.93,10.40,30.3,779.00,598.1
2020-12-21,10:55:00,DRY,1.20,10.75,29.0,779.00,610.8
2020-12-21,11:00:00,DRY,1.33,10.97,28.3,779.00,623.6
2020-12-21,11:05:00,DRY,0.40,10.80,29.5,779.00,635.5
2020-12-21,11:10:00,DRY,1.30,10.73,31.3,779.00,647.8
2020-12-21,11:15:00,DRY,1.85,10.30,32.5,778.50,658.6
2020-12-21,11:20:00,DRY,1.33,10.47,29.7,778.33,668.1
2020-12-21,11:25:00,DRY,0.80,11.00,30.0,779.00,678.5
2020-12-21,11:30:00,DRY,0.97,11.07,30.3,778.00,687.6
2020-12-21,11:35:00,DRY,0.95,11.05,32.5,778.00,698.1
2020-12-21,11:40:00,DRY,1.07,10.70,31.3,778.00,706.5
2020-12-21,11:45:00,DRY,1.90,10.45,32.0,778.00,716.5
2020-12-21,11:50:00,DRY,2.33,9.97,31.7,778.00,723.3
2020-12-21,11:55:00,DRY,2.15,10.10,32.5,778.00,732.1
2020-12-21,12:00:00,DRY,2.60,10.07,30.7,778.00,738.0
2020-12-21,12:05:00,DRY,2.35,9.95,30.0,778.00,743.5
2020-12-21,12:10:00,DRY,2.07,9.83,29.3,778.00,749.2
2020-12-21,12:15:00,DRY,3.10,9.90,29.5,778.00,754.4
2020-12-21,12:20:00,DRY,2.73,9.87,29.0,778.00,759.0
2020-12-21,12:25:00,DRY,2.45,10.15,33.0,778.00,763.7
2020-12-21,12:30:00,DRY,0.80,10.77,27.7,778.00,768.9
2020-12-21,12:35:00,DRY,1.10,11.30,32.5,778.00,772.6
2020-12-21,12:40:00,DRY,1.07,11.70,32.0,778.00,774.5
2020-12-21,12:45:00,DRY,0.85,11.15,29.5,778.00,777.2
2020-12-21,12:50:00,DRY,0.67,11.57,28.7,778.00,778.4
2020-12-21,12:55:00,DRY,0.90,11.65,33.0,778.00,781.2
2020-12-21,13:00:00,DRY,0.70,11.80,30.7,778.00,782.3
2020-12-21,13:05:00,DRY,1.30,11.80,29.5,778.00,781.8
2020-12-21,13:10:00,DRY,1.27,12.03,30.7,778.00,781.3
2020-12-21,13:15:00,DRY,0.70,12.30,33.5,778.00,780.4
2020-12-21,13:20:00,DRY,0.73,12.57,34.0,778.00,780.2
2020-12-21,13:25:00,DRY,1.20,12.60,31.5,778.00,779.1
2020-12-21,13:30:00,DRY,2.20,12.30,36.0,778.00,776.8
2020-12-21,13:35:00,,,,,,
2020-12-21,13:40:00,DRY,1.13,11.97,36.3,777.33,769.5
2020-12-21,13:45:00,DRY,1.60,11.15,40.0,777.50,767.6
2020-12-21,13:50:00,DRY,0.87,10.73,39.3,777.33,761.0
2020-12-21,13:55:00,DRY,1.60,10.65,40.0,777.00,757.1
2020-12-21,14:00:00,DRY,1.13,10.57,39.3,777.00,751.5
2020-12-21,14:05:00,DRY,1.35,10.45,39.5,777.00,745.6
2020-12-21,14:10:00,DRY,1.30,10.33,39.3,777.00,741.7
2020-12-21,14:15:00,DRY,1.90,10.25,37.0,777.00,734.1
2020-12-21,14:20:00,DRY,1.27,10.17,34.7,777.00,726.9
2020-12-21,14:25:00,DRY,1.00,10.25,34.0,777.00,720.5
2020-12-21,14:30:00,DRY,0.77,10.40,34.3,777.00,713.2
2020-12-21,14:35:00,DRY,0.95,10.40,33.0,777.00,704.0
2020-12-21,14:40:00,DRY,1.07,10.47,29.7,777.00,696.2
2020-12-21,14:45:00,DRY,1.60,10.35,30.0,777.00,687.3
2020-12-21,14:50:00,DRY,1.40,10.23,34.3,777.00,675.4
2020-12-21,14:55:00,DRY,1.65,10.50,37.0,777.00,666.0
2020-12-21,15:00:00,DRY,1.70,10.23,37.0,777.00,654.4
2020-12-21,15:05:00,DRY,1.70,10.20,36.0,777.00,643.2
2020-12-21,15:10:00,DRY,1.50,10.20,35.0,777.00,631.8
2020-12-21,15:15:00,DRY,1.90,10.10,34.5,777.00,619.0
2020-12-21,15:20:00,DRY,1.80,9.83,32.3,777.00,606.3
2020-12-21,15:25:00,DRY,1.65,9.80,32.5,777.00,594.3
2020-12-21,15:30:00,DRY,0.77,9.93,31.7,777.00,580.0
2020-12-21,15:35:00,DRY,0.60,10.05,29.5,777.00,567.4
2020-12-21,15:40:00,DRY,0.73,10.20,31.0,777.00,553.4
2020-12-21,15:45:00,DRY,0.95,10.15,31.0,777.00,537.2
2020-12-21,15:50:00,DRY,1.03,10.10,28.3,777.00,523.5
2020-12-21,15:55:00,DRY,0.90,10.05,27.5,777.00,509.2
2020-12-21,16:00:00,DRY,0.90,10.03,29.0,777.00,492.9
2020-12-21,16:05:00,DRY,0.95,10.10,27.0,777.00,477.5
2020-12-21,16:10:00,DRY,0.73,10.10,25.7,777.00,460.5
2020-12-21,16:15:00,DRY,0.75,10.10,24.5,777.00,443.5
2020-12-21,16:20:00,DRY,0.57,10.13,27.0,777.00,426.2
2020-12-21,16:25:00,DRY,1.35,9.90,28.0,777.00,407.6
2020-12-21,16:30:00,DRY,1.27,9.63,27.0,777.00,389.6
2020-12-21,16:35:00,DRY,1.00,9.60,25.5,777.00,371.6
2020-12-21,16:40:00,DRY,1.10,9.73,26.3,777.00,353.9
2020-12-21,16:45:00,DRY,0.90,9.70,26.5,777.00,334.6
2020-12-21,16:50:00,DRY,1.33,9.47,26.0,777.00,315.0
2020-12-21,16:55:00,DRY,0.85,9.60,27.0,777.00,296.4
2020-12-21,17:00:00,DRY,1.53,9.40,25.7,777.00,277.2
2020-12-21,17:05:00,DRY,1.55,9.10,25.5,777.00,257.5
2020-12-21,17:10:00,DRY,1.57,9.23,26.0,777.00,239.0
2020-12-21,17:15:00,DRY,1.70,9.20,26.0,777.00,220.1
2020-12-21,17:20:00,DRY,1.33,9.20,24.0,777.00,200.6